Time,TemperatureF,DewpointF,PressureIn,WindDirection,WindDirectionDegrees,WindSpeedMPH,WindSpeedGustMPH,Humidity,HourlyPrecipIn,Conditions,Clouds,dailyrainin,SoftwareType,DateUTC
2013-07-25 00:05:00,53.1,51.1,30.07,NNW,336,4.0,6.0,93,0.00,,,0.00,Wunderground v.1.15,2013-07-25 07:05:00,
2013-07-25 00:10:00,53.0,51.0,30.07,NW,316,4.0,4.0,93,0.00,,,0.00,Wunderground v.1.15,2013-07-25 07:10:00,
2013-07-25 00:15:00,52.9,50.6,30.07,NW,325,4.0,6.0,92,0.00,,,0.00,Wunderground v.1.15,2013-07-25 07:15:00,
2013-07-25 00:19:00,53.0,51.0,30.07,NW,316,4.0,4.0,93,0.00,,,0.00,Wunderground v.1.15,2013-07-25 07:19:00,
2013-07-25 00:24:00,53.0,50.7,30.07,NW,326,5.0,5.0,92,0.00,,,0.00,Wunderground v.1.15,2013-07-25 07:24:00,
2013-07-25 00:29:00,53.0,50.7,30.07,WNW,293,4.0,4.0,92,0.00,,,0.00,Wunderground v.1.15,2013-07-25 07:29:00,
2013-07-25 00:35:00,52.9,50.6,30.08,NW,326,3.0,4.0,92,0.00,,,0.00,Wunderground v.1.15,2013-07-25 07:35:00,
2013-07-25 00:40:00,52.8,50.5,30.08,NW,321,3.0,3.0,92,0.00,,,0.00,Wunderground v.1.15,2013-07-25 07:40:00,
2013-07-25 00:45:00,52.9,50.6,30.08,NNW,340,3.0,3.0,92,0.00,,,0.00,Wunderground v.1.15,2013-07-25 07:45:00,
2013-07-25 00:54:00,52.8,50.8,30.07,NW,322,4.0,5.0,93,0.00,,,0.00,Wunderground v.1.15,2013-07-25 07:54:00,
2013-07-25 00:59:00,52.9,50.9,30.07,WNW,302,4.0,4.0,93,0.00,,,0.00,Wunderground v.1.15,2013-07-25 07:59:00,
2013-07-25 01:04:00,52.8,50.5,30.07,NW,306,3.0,7.0,92,0.00,,,0.00,Wunderground v.1.15,2013-07-25 08:04:00,
2013-07-25 01:09:00,52.8,50.8,30.07,NW,321,3.0,6.0,93,0.00,,,0.00,Wunderground v.1.15,2013-07-25 08:09:00,
2013-07-25 01:14:00,52.9,50.9,30.07,NW,326,4.0,6.0,93,0.00,,,0.00,Wunderground v.1.15,2013-07-25 08:14:00,
2013-07-25 01:20:00,52.7,50.4,30.07,WNW,286,4.0,4.0,92,0.00,,,0.00,Wunderground v.1.15,2013-07-25 08:20:00,
2013-07-25 01:25:00,52.9,50.9,30.07,NW,322,4.0,4.0,93,0.00,,,0.00,Wunderground v.1.15,2013-07-25 08:25:00,
2013-07-25 01:30:00,52.8,50.5,30.07,NNW,329,4.0,4.0,92,0.00,,,0.00,Wunderground v.1.15,2013-07-25 08:30:00,
2013-07-25 01:35:00,52.9,50.6,30.07,WNW,296,4.0,4.0,92,0.00,,,0.00,Wunderground v.1.15,2013-07-25 08:35:00,
2013-07-25 01:40:00,52.9,50.6,30.07,NW,313,3.0,3.0,92,0.00,,,0.00,Wunderground v.1.15,2013-07-25 08:40:00,
2013-07-25 01:45:00,53.0,50.7,30.07,WNW,299,4.0,4.0,92,0.00,,,0.00,Wunderground v.1.15,2013-07-25 08:45:00,
2013-07-25 01:49:00,53.1,50.8,30.07,NW,324,4.0,4.0,92,0.00,,,0.00,Wunderground v.1.15,2013-07-25 08:49:00,
2013-07-25 01:54:00,53.1,50.8,30.07,NNW,340,5.0,5.0,92,0.00,,,0.00,Wunderground v.1.15,2013-07-25 08:54:00,
2013-07-25 01:59:00,53.3,51.0,30.07,NW,320,5.0,5.0,92,0.00,,,0.00,Wunderground v.1.15,2013-07-25 08:59:00,
2013-07-25 02:05:00,53.3,51.0,30.08,WNW,291,5.0,5.0,92,0.00,,,0.00,Wunderground v.1.15,2013-07-25 09:05:00,
2013-07-25 02:10:00,53.3,51.0,30.08,West,279,5.0,5.0,92,0.00,,,0.00,Wunderground v.1.15,2013-07-25 09:10:00,
2013-07-25 02:15:00,53.4,51.1,30.08,NW,318,4.0,6.0,92,0.00,,,0.00,Wunderground v.1.15,2013-07-25 09:15:00,
2013-07-25 02:20:00,53.3,51.0,30.08,NW,321,4.0,4.0,92,0.00,,,0.00,Wunderground v.1.15,2013-07-25 09:20:00,
2013-07-25 02:25:00,53.3,51.0,30.08,NW,315,5.0,5.0,92,0.00,,,0.00,Wunderground v.1.15,2013-07-25 09:25:00,
2013-07-25 02:29:00,53.4,51.1,30.08,West,281,5.0,7.0,92,0.00,,,0.00,Wunderground v.1.15,2013-07-25 09:29:00,
2013-07-25 02:34:00,53.5,50.9,30.08,NW,315,5.0,7.0,91,0.00,,,0.00,Wunderground v.1.15,2013-07-25 09:34:00,
2013-07-25 02:39:00,53.6,51.0,30.08,NW,315,5.0,5.0,91,0.00,,,0.00,Wunderground v.1.15,2013-07-25 09:39:00,
2013-07-25 02:44:00,53.6,51.0,30.08,WNW,295,5.0,5.0,91,0.00,,,0.00,Wunderground v.1.15,2013-07-25 09:44:00,
2013-07-25 02:50:00,53.6,51.0,30.08,NW,321,4.0,4.0,91,0.00,,,0.00,Wunderground v.1.15,2013-07-25 09:50:00,
2013-07-25 02:55:00,53.7,51.1,30.08,WNW,303,4.0,6.0,91,0.00,,,0.00,Wunderground v.1.15,2013-07-25 09:55:00,
2013-07-25 03:00:00,53.8,51.2,30.08,WNW,285,4.0,7.0,91,0.00,,,0.00,Wunderground v.1.15,2013-07-25 10:00:00,
2013-07-25 03:04:00,54.0,51.4,30.08,NW,319,5.0,7.0,91,0.00,,,0.00,Wunderground v.1.15,2013-07-25 10:04:00,
2013-07-25 03:09:00,54.0,51.4,30.08,WNW,302,5.0,9.0,91,0.00,,,0.00,Wunderground v.1.15,2013-07-25 10:09:00,
2013-07-25 03:14:00,53.8,50.9,30.08,NW,311,5.0,9.0,90,0.00,,,0.00,Wunderground v.1.15,2013-07-25 10:14:00,
2013-07-25 03:20:00,53.9,51.0,30.08,NW,319,6.0,6.0,90,0.00,,,0.00,Wunderground v.1.15,2013-07-25 10:20:00,
2013-07-25 03:25:00,53.8,50.9,30.08,NW,318,6.0,6.0,90,0.00,,,0.00,Wunderground v.1.15,2013-07-25 10:25:00,
2013-07-25 03:29:00,53.7,50.8,30.08,NNW,329,6.0,7.0,90,0.00,,,0.00,Wunderground v.1.15,2013-07-25 10:29:00,
2013-07-25 03:35:00,53.8,50.9,30.08,WNW,301,5.0,8.0,90,0.00,,,0.00,Wunderground v.1.15,2013-07-25 10:35:00,
2013-07-25 03:40:00,53.8,50.9,30.08,WNW,292,5.0,7.0,90,0.00,,,0.00,Wunderground v.1.15,2013-07-25 10:40:00,
2013-07-25 03:45:00,53.7,50.8,30.08,NW,309,5.0,7.0,90,0.00,,,0.00,Wunderground v.1.15,2013-07-25 10:45:00,
2013-07-25 03:49:00,54.0,51.4,30.08,NNW,346,6.0,8.0,91,0.00,,,0.00,Wunderground v.1.15,2013-07-25 10:49:00,
2013-07-25 03:54:00,53.8,50.9,30.08,NNW,336,6.0,8.0,90,0.00,,,0.00,Wunderground v.1.15,2013-07-25 10:54:00,
2013-07-25 03:59:00,54.1,51.5,30.08,NW,316,6.0,6.0,91,0.00,,,0.00,Wunderground v.1.15,2013-07-25 10:59:00,
2013-07-25 04:05:00,54.3,51.7,30.08,NW,315,7.0,7.0,91,0.00,,,0.00,Wunderground v.1.15,2013-07-25 11:05:00,
2013-07-25 04:10:00,54.2,51.3,30.08,NNW,328,7.0,7.0,90,0.00,,,0.00,Wunderground v.1.15,2013-07-25 11:10:00,
2013-07-25 04:15:00,54.0,51.1,30.08,NW,322,7.0,7.0,90,0.00,,,0.00,Wunderground v.1.15,2013-07-25 11:15:00,
2013-07-25 04:20:00,54.0,51.1,30.08,NW,306,7.0,7.0,90,0.00,,,0.00,Wunderground v.1.15,2013-07-25 11:20:00,
2013-07-25 04:25:00,54.1,51.2,30.08,WNW,293,6.0,7.0,90,0.00,,,0.00,Wunderground v.1.15,2013-07-25 11:25:00,
2013-07-25 04:30:00,54.3,51.4,30.08,West,278,6.0,8.0,90,0.00,,,0.00,Wunderground v.1.15,2013-07-25 11:30:00,
2013-07-25 04:34:00,54.4,51.5,30.08,West,270,7.0,8.0,90,0.00,,,0.00,Wunderground v.1.15,2013-07-25 11:34:00,
2013-07-25 04:39:00,54.4,51.5,30.08,West,276,7.0,8.0,90,0.00,,,0.00,Wunderground v.1.15,2013-07-25 11:39:00,
2013-07-25 04:44:00,54.2,51.0,30.08,NW,311,6.0,8.0,89,0.00,,,0.00,Wunderground v.1.15,2013-07-25 11:44:00,
2013-07-25 04:49:00,54.2,51.0,30.08,West,278,5.0,6.0,89,0.00,,,0.00,Wunderground v.1.15,2013-07-25 11:49:00,
2013-07-25 04:54:00,54.1,50.9,30.09,NW,315,5.0,6.0,89,0.00,,,0.00,Wunderground v.1.15,2013-07-25 11:54:00,
2013-07-25 05:05:00,54.4,51.2,30.09,NW,316,5.0,6.0,89,0.00,,,0.00,Wunderground v.1.15,2013-07-25 12:05:00,
2013-07-25 05:10:00,54.3,51.1,30.09,NW,326,4.0,4.0,89,0.00,,,0.00,Wunderground v.1.15,2013-07-25 12:10:00,
2013-07-25 05:15:00,54.1,50.9,30.09,NW,304,4.0,6.0,89,0.00,,,0.00,Wunderground v.1.15,2013-07-25 12:15:00,
2013-07-25 05:20:00,54.1,50.9,30.09,WNW,288,4.0,5.0,89,0.00,,,0.00,Wunderground v.1.15,2013-07-25 12:20:00,
2013-07-25 05:25:00,54.2,51.0,30.09,NW,322,5.0,5.0,89,0.00,,,0.00,Wunderground v.1.15,2013-07-25 12:25:00,
2013-07-25 05:30:00,54.2,51.3,30.09,WNW,292,5.0,6.0,90,0.00,,,0.00,Wunderground v.1.15,2013-07-25 12:30:00,
2013-07-25 05:34:00,54.2,51.3,30.09,NNW,340,4.0,6.0,90,0.00,,,0.00,Wunderground v.1.15,2013-07-25 12:34:00,
2013-07-25 05:39:00,54.2,51.3,30.09,West,279,5.0,6.0,90,0.00,,,0.00,Wunderground v.1.15,2013-07-25 12:39:00,
2013-07-25 05:44:00,54.2,51.3,30.09,West,277,5.0,6.0,90,0.00,,,0.00,Wunderground v.1.15,2013-07-25 12:44:00,
2013-07-25 05:50:00,54.2,51.3,30.09,NW,311,5.0,6.0,90,0.00,,,0.00,Wunderground v.1.15,2013-07-25 12:50:00,
2013-07-25 05:54:00,54.1,51.2,30.09,NW,324,5.0,6.0,90,0.00,,,0.00,Wunderground v.1.15,2013-07-25 12:54:00,
2013-07-25 05:59:00,54.1,51.2,30.09,WNW,301,5.0,6.0,90,0.00,,,0.00,Wunderground v.1.15,2013-07-25 12:59:00,
2013-07-25 06:05:00,54.3,51.4,30.09,NNW,329,5.0,6.0,90,0.00,,,0.00,Wunderground v.1.15,2013-07-25 13:05:00,
2013-07-25 06:10:00,54.3,51.4,30.09,WNW,300,6.0,6.0,90,0.00,,,0.00,Wunderground v.1.15,2013-07-25 13:10:00,
2013-07-25 06:15:00,54.2,51.3,30.09,NW,305,6.0,6.0,90,0.00,,,0.00,Wunderground v.1.15,2013-07-25 13:15:00,
2013-07-25 06:19:00,54.4,51.5,30.09,WNW,292,5.0,5.0,90,0.00,,,0.00,Wunderground v.1.15,2013-07-25 13:19:00,
2013-07-25 06:25:00,54.4,51.5,30.09,NNW,331,4.0,5.0,90,0.00,,,0.00,Wunderground v.1.15,2013-07-25 13:25:00,
2013-07-25 06:34:00,54.6,52.0,30.09,West,263,4.0,6.0,91,0.00,,,0.00,Wunderground v.1.15,2013-07-25 13:34:00,
2013-07-25 06:39:00,54.4,51.8,30.09,West,273,5.0,7.0,91,0.00,,,0.00,Wunderground v.1.15,2013-07-25 13:39:00,
2013-07-25 06:44:00,54.3,51.4,30.10,WNW,289,5.0,7.0,90,0.00,,,0.00,Wunderground v.1.15,2013-07-25 13:44:00,
2013-07-25 06:50:00,54.3,51.7,30.10,NW,324,5.0,8.0,91,0.00,,,0.00,Wunderground v.1.15,2013-07-25 13:50:00,
2013-07-25 06:55:00,54.4,51.8,30.10,WNW,291,6.0,8.0,91,0.00,,,0.00,Wunderground v.1.15,2013-07-25 13:55:00,
2013-07-25 07:00:00,54.5,51.9,30.10,WNW,287,6.0,6.0,91,0.00,,,0.00,Wunderground v.1.15,2013-07-25 14:00:00,
2013-07-25 07:05:00,54.4,51.8,30.10,WNW,285,5.0,6.0,91,0.00,,,0.00,Wunderground v.1.15,2013-07-25 14:05:00,
2013-07-25 07:10:00,54.3,51.7,30.10,WNW,286,5.0,5.0,91,0.00,,,0.00,Wunderground v.1.15,2013-07-25 14:10:00,
2013-07-25 07:15:00,54.3,51.7,30.10,NNW,330,4.0,6.0,91,0.00,,,0.00,Wunderground v.1.15,2013-07-25 14:15:00,
2013-07-25 07:24:00,54.3,51.7,30.10,NW,307,4.0,7.0,91,0.00,,,0.00,Wunderground v.1.15,2013-07-25 14:24:00,
2013-07-25 07:29:00,54.4,51.8,30.10,NW,319,4.0,4.0,91,0.00,,,0.00,Wunderground v.1.15,2013-07-25 14:29:00,
2013-07-25 07:34:00,54.5,51.9,30.10,NW,308,3.0,4.0,91,0.00,,,0.00,Wunderground v.1.15,2013-07-25 14:34:00,
2013-07-25 07:39:00,54.4,51.8,30.10,WNW,285,4.0,5.0,91,0.00,,,0.00,Wunderground v.1.15,2013-07-25 14:39:00,
2013-07-25 07:44:00,54.5,51.9,30.10,NW,320,4.0,5.0,91,0.00,,,0.00,Wunderground v.1.15,2013-07-25 14:44:00,
2013-07-25 07:50:00,54.6,52.0,30.10,WNW,302,3.0,4.0,91,0.00,,,0.00,Wunderground v.1.15,2013-07-25 14:50:00,
2013-07-25 07:55:00,54.5,51.9,30.10,NW,325,4.0,5.0,91,0.00,,,0.00,Wunderground v.1.15,2013-07-25 14:55:00,
2013-07-25 08:00:00,54.6,52.0,30.10,NNW,333,4.0,4.0,91,0.00,,,0.00,Wunderground v.1.15,2013-07-25 15:00:00,
2013-07-25 08:04:00,54.7,52.1,30.11,West,280,4.0,9.0,91,0.00,,,0.00,Wunderground v.1.15,2013-07-25 15:04:00,
2013-07-25 08:09:00,54.7,52.1,30.10,NNW,327,4.0,4.0,91,0.00,,,0.00,Wunderground v.1.15,2013-07-25 15:09:00,
2013-07-25 08:14:00,54.7,52.1,30.11,WNW,294,5.0,5.0,91,0.00,,,0.00,Wunderground v.1.15,2013-07-25 15:14:00,
2013-07-25 08:20:00,54.7,52.1,30.11,NW,320,5.0,5.0,91,0.00,,,0.00,Wunderground v.1.15,2013-07-25 15:20:00,
2013-07-25 08:30:00,54.9,52.3,30.11,WNW,288,4.0,4.0,91,0.00,,,0.00,Wunderground v.1.15,2013-07-25 15:30:00,
2013-07-25 08:35:00,55.0,52.4,30.12,NW,320,4.0,4.0,91,0.00,,,0.00,Wunderground v.1.15,2013-07-25 15:35:00,
2013-07-25 08:40:00,55.1,52.5,30.12,NW,315,4.0,4.0,91,0.00,,,0.00,Wunderground v.1.15,2013-07-25 15:40:00,
2013-07-25 08:44:00,55.2,52.6,30.12,WNW,284,4.0,6.0,91,0.00,,,0.00,Wunderground v.1.15,2013-07-25 15:44:00,
2013-07-25 08:49:00,55.2,52.3,30.12,West,269,4.0,5.0,90,0.00,,,0.00,Wunderground v.1.15,2013-07-25 15:49:00,
2013-07-25 08:54:00,55.2,52.3,30.12,WNW,282,5.0,5.0,90,0.00,,,0.00,Wunderground v.1.15,2013-07-25 15:54:00,
2013-07-25 08:59:00,55.2,52.6,30.13,NW,304,4.0,5.0,91,0.00,,,0.00,Wunderground v.1.15,2013-07-25 15:59:00,
2013-07-25 09:05:00,55.3,52.4,30.12,NW,309,4.0,6.0,90,0.00,,,0.00,Wunderground v.1.15,2013-07-25 16:05:00,
2013-07-25 09:10:00,55.5,52.6,30.12,NW,315,4.0,4.0,90,0.00,,,0.00,Wunderground v.1.15,2013-07-25 16:10:00,
2013-07-25 09:15:00,55.5,52.6,30.12,NW,321,4.0,4.0,90,0.00,,,0.00,Wunderground v.1.15,2013-07-25 16:15:00,
2013-07-25 09:19:00,55.7,52.8,30.13,WNW,296,5.0,5.0,90,0.00,,,0.00,Wunderground v.1.15,2013-07-25 16:19:00,
2013-07-25 09:24:00,56.0,53.1,30.13,WNW,292,4.0,5.0,90,0.00,,,0.00,Wunderground v.1.15,2013-07-25 16:24:00,
2013-07-25 09:29:00,56.0,52.8,30.13,WNW,294,5.0,6.0,89,0.00,,,0.00,Wunderground v.1.15,2013-07-25 16:29:00,
2013-07-25 09:34:00,56.1,52.9,30.13,NW,315,5.0,6.0,89,0.00,,,0.00,Wunderground v.1.15,2013-07-25 16:34:00,
2013-07-25 09:39:00,56.3,52.8,30.13,NW,308,5.0,5.0,88,0.00,,,0.00,Wunderground v.1.15,2013-07-25 16:39:00,
2013-07-25 09:44:00,56.7,53.2,30.13,NNW,334,5.0,5.0,88,0.00,,,0.00,Wunderground v.1.15,2013-07-25 16:44:00,
2013-07-25 09:49:00,57.3,53.8,30.13,NW,322,4.0,4.0,88,0.00,,,0.00,Wunderground v.1.15,2013-07-25 16:49:00,
2013-07-25 09:55:00,58.0,53.8,30.13,NW,316,4.0,8.0,86,0.00,,,0.00,Wunderground v.1.15,2013-07-25 16:55:00,
2013-07-25 10:00:00,58.5,54.3,30.13,NNW,329,5.0,7.0,86,0.00,,,0.00,Wunderground v.1.15,2013-07-25 17:00:00,
2013-07-25 10:05:00,58.9,54.4,30.13,NW,310,5.0,7.0,85,0.00,,,0.00,Wunderground v.1.15,2013-07-25 17:05:00,
2013-07-25 10:15:00,59.6,54.4,30.13,NNW,327,5.0,7.0,83,0.00,,,0.00,Wunderground v.1.15,2013-07-25 17:15:00,
2013-07-25 10:19:00,59.6,54.4,30.12,NW,323,5.0,6.0,83,0.00,,,0.00,Wunderground v.1.15,2013-07-25 17:19:00,
2013-07-25 10:24:00,60.2,55.0,30.12,NW,323,4.0,6.0,83,0.00,,,0.00,Wunderground v.1.15,2013-07-25 17:24:00,
2013-07-25 10:35:00,61.2,56.0,30.12,North,349,4.0,7.0,83,0.00,,,0.00,Wunderground v.1.15,2013-07-25 17:35:00,
2013-07-25 10:40:00,61.5,56.0,30.12,NE,36,5.0,5.0,82,0.00,,,0.00,Wunderground v.1.15,2013-07-25 17:40:00,
2013-07-25 10:50:00,62.0,56.1,30.12,NE,40,4.0,4.0,81,0.00,,,0.00,Wunderground v.1.15,2013-07-25 17:50:00,
2013-07-25 10:55:00,62.5,56.6,30.12,NE,48,4.0,4.0,81,0.00,,,0.00,Wunderground v.1.15,2013-07-25 17:55:00,
2013-07-25 11:00:00,62.8,56.5,30.12,NW,311,3.0,3.0,80,0.00,,,0.00,Wunderground v.1.15,2013-07-25 18:00:00,
2013-07-25 11:09:00,63.4,57.1,30.12,NNE,22,4.0,4.0,80,0.00,,,0.00,Wunderground v.1.15,2013-07-25 18:09:00,
2013-07-25 11:14:00,63.9,57.3,30.12,NW,314,3.0,7.0,79,0.00,,,0.00,Wunderground v.1.15,2013-07-25 18:14:00,
2013-07-25 11:20:00,64.1,57.1,30.12,NNE,14,3.0,5.0,78,0.00,,,0.00,Wunderground v.1.15,2013-07-25 18:20:00,
2013-07-25 11:25:00,64.3,57.3,30.12,NNW,331,4.0,5.0,78,0.00,,,0.00,Wunderground v.1.15,2013-07-25 18:25:00,
2013-07-25 11:30:00,64.6,57.2,30.12,NNW,336,4.0,4.0,77,0.00,,,0.00,Wunderground v.1.15,2013-07-25 18:30:00,
2013-07-25 11:34:00,64.8,57.8,30.12,NNW,333,4.0,4.0,78,0.00,,,0.00,Wunderground v.1.15,2013-07-25 18:34:00,
2013-07-25 11:40:00,65.1,58.1,30.12,NNW,330,4.0,4.0,78,0.00,,,0.00,Wunderground v.1.15,2013-07-25 18:40:00,
2013-07-25 11:45:00,65.4,58.0,30.12,NE,52,4.0,4.0,77,0.00,,,0.00,Wunderground v.1.15,2013-07-25 18:45:00,
2013-07-25 11:49:00,65.6,58.6,30.12,North,355,4.0,6.0,78,0.00,,,0.00,Wunderground v.1.15,2013-07-25 18:49:00,
2013-07-25 11:54:00,65.7,58.3,30.11,NW,315,5.0,6.0,77,0.00,,,0.00,Wunderground v.1.15,2013-07-25 18:54:00,
2013-07-25 11:59:00,66.2,58.8,30.11,NNW,333,5.0,5.0,77,0.00,,,0.00,Wunderground v.1.15,2013-07-25 18:59:00,
2013-07-25 12:04:00,66.4,58.6,30.11,NNE,15,5.0,5.0,76,0.00,,,0.00,Wunderground v.1.15,2013-07-25 19:04:00,
2013-07-25 12:09:00,66.6,58.4,30.11,NNE,31,5.0,9.0,75,0.00,,,0.00,Wunderground v.1.15,2013-07-25 19:09:00,
2013-07-25 12:14:00,66.7,58.5,30.11,ENE,62,5.0,9.0,75,0.00,,,0.00,Wunderground v.1.15,2013-07-25 19:14:00,
2013-07-25 12:20:00,67.1,59.3,30.11,NNE,13,5.0,7.0,76,0.00,,,0.00,Wunderground v.1.15,2013-07-25 19:20:00,
2013-07-25 12:30:00,68.2,60.0,30.12,WNW,287,5.0,5.0,75,0.00,,,0.00,Wunderground v.1.15,2013-07-25 19:30:00,
2013-07-25 12:39:00,68.4,59.4,30.11,NNE,25,5.0,5.0,73,0.00,,,0.00,Wunderground v.1.15,2013-07-25 19:39:00,
2013-07-25 12:44:00,68.9,59.5,30.11,NNW,338,4.0,5.0,72,0.00,,,0.00,Wunderground v.1.15,2013-07-25 19:44:00,
2013-07-25 12:50:00,69.5,59.3,30.11,NNW,344,4.0,7.0,70,0.00,,,0.00,Wunderground v.1.15,2013-07-25 19:50:00,
2013-07-25 12:55:00,70.2,60.4,30.11,NW,326,4.0,7.0,71,0.00,,,0.00,Wunderground v.1.15,2013-07-25 19:55:00,
2013-07-25 13:00:00,70.4,59.7,30.11,NNW,333,4.0,4.0,69,0.00,,,0.00,Wunderground v.1.15,2013-07-25 20:00:00,
2013-07-25 13:04:00,70.7,60.0,30.11,WNW,302,5.0,5.0,69,0.00,,,0.00,Wunderground v.1.15,2013-07-25 20:04:00,
2013-07-25 13:09:00,70.9,59.8,30.11,West,276,5.0,8.0,68,0.00,,,0.00,Wunderground v.1.15,2013-07-25 20:09:00,
2013-07-25 13:14:00,70.7,59.6,30.11,WNW,299,5.0,8.0,68,0.00,,,0.00,Wunderground v.1.15,2013-07-25 20:14:00,
2013-07-25 13:19:00,71.1,60.0,30.11,WNW,283,6.0,6.0,68,0.00,,,0.00,Wunderground v.1.15,2013-07-25 20:19:00,
2013-07-25 13:25:00,71.7,60.6,30.11,West,279,5.0,6.0,68,0.00,,,0.00,Wunderground v.1.15,2013-07-25 20:25:00,
2013-07-25 13:30:00,71.7,59.3,30.11,WNW,285,5.0,9.0,65,0.00,,,0.00,Wunderground v.1.15,2013-07-25 20:30:00,
2013-07-25 13:35:00,71.0,59.1,30.11,West,272,5.0,9.0,66,0.00,,,0.00,Wunderground v.1.15,2013-07-25 20:35:00,
2013-07-25 13:40:00,71.0,59.5,30.11,WNW,286,6.0,6.0,67,0.00,,,0.00,Wunderground v.1.15,2013-07-25 20:40:00,
2013-07-25 13:49:00,71.9,60.3,30.10,NW,315,5.0,6.0,67,0.00,,,0.00,Wunderground v.1.15,2013-07-25 20:49:00,
2013-07-25 13:59:00,71.6,58.8,30.10,WNW,286,6.0,6.0,64,0.00,,,0.00,Wunderground v.1.15,2013-07-25 20:59:00,
2013-07-25 14:05:00,71.5,60.4,30.10,West,277,6.0,7.0,68,0.00,,,0.00,Wunderground v.1.15,2013-07-25 21:05:00,
2013-07-25 14:14:00,71.5,59.5,30.10,NW,310,7.0,7.0,66,0.00,,,0.00,Wunderground v.1.15,2013-07-25 21:14:00,
2013-07-25 14:20:00,71.7,59.3,30.10,West,281,6.0,9.0,65,0.00,,,0.00,Wunderground v.1.15,2013-07-25 21:20:00,
2013-07-25 14:25:00,72.1,61.0,30.10,WNW,298,6.0,10.0,68,0.00,,,0.00,Wunderground v.1.15,2013-07-25 21:25:00,
2013-07-25 14:30:00,71.9,59.9,30.09,West,273,6.0,6.0,66,0.00,,,0.00,Wunderground v.1.15,2013-07-25 21:30:00,
2013-07-25 14:34:00,72.6,61.0,30.09,WNW,302,6.0,9.0,67,0.00,,,0.00,Wunderground v.1.15,2013-07-25 21:34:00,
2013-07-25 14:39:00,72.3,60.3,30.09,West,267,7.0,10.0,66,0.00,,,0.00,Wunderground v.1.15,2013-07-25 21:39:00,
2013-07-25 14:44:00,72.2,59.8,30.09,West,272,8.0,10.0,65,0.00,,,0.00,Wunderground v.1.15,2013-07-25 21:44:00,
2013-07-25 14:50:00,72.0,60.9,30.09,WNW,285,8.0,10.0,68,0.00,,,0.00,Wunderground v.1.15,2013-07-25 21:50:00,
2013-07-25 14:55:00,72.0,60.0,30.09,West,270,8.0,10.0,66,0.00,,,0.00,Wunderground v.1.15,2013-07-25 21:55:00,
2013-07-25 15:00:00,72.1,59.2,30.09,West,277,8.0,8.0,64,0.00,,,0.00,Wunderground v.1.15,2013-07-25 22:00:00,
2013-07-25 15:04:00,72.1,59.7,30.09,West,269,8.0,8.0,65,0.00,,,0.00,Wunderground v.1.15,2013-07-25 22:04:00,
2013-07-25 15:09:00,72.2,58.5,30.09,WSW,252,8.0,8.0,62,0.00,,,0.00,Wunderground v.1.15,2013-07-25 22:09:00,
2013-07-25 15:14:00,72.2,58.9,30.09,West,261,8.0,8.0,63,0.00,,,0.00,Wunderground v.1.15,2013-07-25 22:14:00,
2013-07-25 15:20:00,72.3,58.1,30.09,WNW,286,9.0,10.0,61,0.00,,,0.00,Wunderground v.1.15,2013-07-25 22:20:00,
2013-07-25 15:24:00,72.4,59.1,30.09,West,275,8.0,10.0,63,0.00,,,0.00,Wunderground v.1.15,2013-07-25 22:24:00,
2013-07-25 15:29:00,72.5,59.6,30.09,West,267,9.0,9.0,64,0.00,,,0.00,Wunderground v.1.15,2013-07-25 22:29:00,
2013-07-25 15:35:00,72.5,59.6,30.09,West,277,9.0,9.0,64,0.00,,,0.00,Wunderground v.1.15,2013-07-25 22:35:00,
2013-07-25 15:40:00,72.7,59.4,30.09,West,278,8.0,8.0,63,0.00,,,0.00,Wunderground v.1.15,2013-07-25 22:40:00,
2013-07-25 15:45:00,72.8,59.5,30.09,WNW,282,8.0,8.0,63,0.00,,,0.00,Wunderground v.1.15,2013-07-25 22:45:00,
2013-07-25 15:54:00,72.4,60.4,30.08,WNW,286,10.0,12.0,66,0.00,,,0.00,Wunderground v.1.15,2013-07-25 22:54:00,
2013-07-25 15:59:00,71.9,57.7,30.08,West,274,11.0,11.0,61,0.00,,,0.00,Wunderground v.1.15,2013-07-25 22:59:00,
2013-07-25 16:05:00,72.2,59.3,30.08,WNW,288,12.0,12.0,64,0.00,,,0.00,Wunderground v.1.15,2013-07-25 23:05:00,
2013-07-25 16:10:00,72.1,57.9,30.08,WNW,292,11.0,11.0,61,0.00,,,0.00,Wunderground v.1.15,2013-07-25 23:10:00,
2013-07-25 16:15:00,72.0,58.7,30.08,West,274,12.0,12.0,63,0.00,,,0.00,Wunderground v.1.15,2013-07-25 23:15:00,
2013-07-25 16:19:00,71.7,58.4,30.08,West,277,12.0,12.0,63,0.00,,,0.00,Wunderground v.1.15,2013-07-25 23:19:00,
2013-07-25 16:24:00,71.7,58.9,30.08,WNW,287,11.0,13.0,64,0.00,,,0.00,Wunderground v.1.15,2013-07-25 23:24:00,
2013-07-25 16:29:00,71.6,57.9,30.08,West,272,11.0,11.0,62,0.00,,,0.00,Wunderground v.1.15,2013-07-25 23:29:00,
2013-07-25 16:34:00,71.3,58.1,30.08,West,271,11.0,11.0,63,0.00,,,0.00,Wunderground v.1.15,2013-07-25 23:34:00,
2013-07-25 16:40:00,71.3,58.5,30.08,West,270,11.0,14.0,64,0.00,,,0.00,Wunderground v.1.15,2013-07-25 23:40:00,
2013-07-25 16:45:00,71.1,57.4,30.08,WNW,287,11.0,14.0,62,0.00,,,0.00,Wunderground v.1.15,2013-07-25 23:45:00,
2013-07-25 16:49:00,71.1,57.0,30.08,West,271,10.0,13.0,61,0.00,,,0.00,Wunderground v.1.15,2013-07-25 23:49:00,
2013-07-25 16:54:00,71.0,56.9,30.08,West,279,10.0,13.0,61,0.00,,,0.00,Wunderground v.1.15,2013-07-25 23:54:00,
2013-07-25 16:59:00,71.0,57.3,30.08,West,264,11.0,11.0,62,0.00,,,0.00,Wunderground v.1.15,2013-07-25 23:59:00,
2013-07-25 17:05:00,70.8,58.4,30.08,West,279,12.0,12.0,65,0.00,,,0.00,Wunderground v.1.15,2013-07-26 00:05:00,
2013-07-25 17:10:00,70.6,57.8,30.08,West,261,12.0,14.0,64,0.00,,,0.00,Wunderground v.1.15,2013-07-26 00:10:00,
2013-07-25 17:15:00,70.6,57.8,30.08,West,267,12.0,14.0,64,0.00,,,0.00,Wunderground v.1.15,2013-07-26 00:15:00,
2013-07-25 17:19:00,70.6,57.4,30.08,WSW,257,12.0,12.0,63,0.00,,,0.00,Wunderground v.1.15,2013-07-26 00:19:00,
2013-07-25 17:24:00,70.5,57.7,30.08,West,262,13.0,14.0,64,0.00,,,0.00,Wunderground v.1.15,2013-07-26 00:24:00,
2013-07-25 17:29:00,70.3,57.5,30.08,West,275,13.0,15.0,64,0.00,,,0.00,Wunderground v.1.15,2013-07-26 00:29:00,
2013-07-25 17:34:00,70.3,57.1,30.08,West,280,12.0,15.0,63,0.00,,,0.00,Wunderground v.1.15,2013-07-26 00:34:00,
2013-07-25 17:39:00,70.0,58.1,30.08,WNW,298,12.0,14.0,66,0.00,,,0.00,Wunderground v.1.15,2013-07-26 00:39:00,
2013-07-25 17:50:00,70.0,58.1,30.08,WNW,282,13.0,13.0,66,0.00,,,0.00,Wunderground v.1.15,2013-07-26 00:50:00,
2013-07-25 17:55:00,70.1,57.8,30.08,WNW,286,11.0,13.0,65,0.00,,,0.00,Wunderground v.1.15,2013-07-26 00:55:00,
2013-07-25 18:00:00,70.2,57.4,30.07,WSW,255,9.0,10.0,64,0.00,,,0.00,Wunderground v.1.15,2013-07-26 01:00:00,
2013-07-25 18:09:00,69.9,58.0,30.08,West,263,11.0,11.0,66,0.00,,,0.00,Wunderground v.1.15,2013-07-26 01:09:00,
2013-07-25 18:14:00,69.8,57.5,30.08,West,269,11.0,11.0,65,0.00,,,0.00,Wunderground v.1.15,2013-07-26 01:14:00,
2013-07-25 18:20:00,69.6,57.3,30.07,West,275,11.0,12.0,65,0.00,,,0.00,Wunderground v.1.15,2013-07-26 01:20:00,
2013-07-25 18:25:00,69.8,57.9,30.08,West,267,10.0,12.0,66,0.00,,,0.00,Wunderground v.1.15,2013-07-26 01:25:00,
2013-07-25 18:30:00,69.7,57.4,30.07,West,264,9.0,11.0,65,0.00,,,0.00,Wunderground v.1.15,2013-07-26 01:30:00,
2013-07-25 18:34:00,69.5,57.2,30.07,WSW,256,10.0,11.0,65,0.00,,,0.00,Wunderground v.1.15,2013-07-26 01:34:00,
2013-07-25 18:39:00,69.4,55.8,30.07,WNW,294,10.0,13.0,62,0.00,,,0.00,Wunderground v.1.15,2013-07-26 01:39:00,
2013-07-25 18:44:00,69.2,56.5,30.07,West,281,10.0,13.0,64,0.00,,,0.00,Wunderground v.1.15,2013-07-26 01:44:00,
2013-07-25 18:50:00,69.1,56.0,30.07,WNW,300,12.0,12.0,63,0.00,,,0.00,Wunderground v.1.15,2013-07-26 01:50:00,
2013-07-25 18:55:00,68.9,55.8,30.07,West,267,12.0,12.0,63,0.00,,,0.00,Wunderground v.1.15,2013-07-26 01:55:00,
2013-07-25 19:00:00,68.8,56.6,30.07,West,279,12.0,16.0,65,0.00,,,0.00,Wunderground v.1.15,2013-07-26 02:00:00,
2013-07-25 19:04:00,68.9,56.2,30.08,West,267,12.0,16.0,64,0.00,,,0.00,Wunderground v.1.15,2013-07-26 02:04:00,
2013-07-25 19:09:00,68.7,55.2,30.07,West,267,11.0,12.0,62,0.00,,,0.00,Wunderground v.1.15,2013-07-26 02:09:00,
2013-07-25 19:14:00,68.6,55.9,30.08,WSW,258,12.0,12.0,64,0.00,,,0.00,Wunderground v.1.15,2013-07-26 02:14:00,
2013-07-25 19:19:00,68.4,55.3,30.08,West,277,12.0,12.0,63,0.00,,,0.00,Wunderground v.1.15,2013-07-26 02:19:00,
2013-07-25 19:24:00,68.3,55.6,30.08,West,262,12.0,12.0,64,0.00,,,0.00,Wunderground v.1.15,2013-07-26 02:24:00,
2013-07-25 19:29:00,68.1,55.5,30.08,WNW,302,11.0,11.0,64,0.00,,,0.00,Wunderground v.1.15,2013-07-26 02:29:00,
2013-07-25 19:35:00,67.9,56.1,30.08,West,273,12.0,12.0,66,0.00,,,0.00,Wunderground v.1.15,2013-07-26 02:35:00,
2013-07-25 19:40:00,67.7,56.8,30.08,West,273,12.0,13.0,68,0.00,,,0.00,Wunderground v.1.15,2013-07-26 02:40:00,
2013-07-25 19:45:00,67.6,55.8,30.08,West,279,12.0,14.0,66,0.00,,,0.00,Wunderground v.1.15,2013-07-26 02:45:00,
2013-07-25 19:54:00,67.2,55.9,30.08,West,273,13.0,14.0,67,0.00,,,0.00,Wunderground v.1.15,2013-07-26 02:54:00,
2013-07-25 19:59:00,67.0,56.9,30.08,WNW,288,13.0,13.0,70,0.00,,,0.00,Wunderground v.1.15,2013-07-26 02:59:00,
2013-07-25 20:05:00,66.6,56.1,30.08,WNW,286,13.0,17.0,69,0.00,,,0.00,Wunderground v.1.15,2013-07-26 03:05:00,
2013-07-25 20:10:00,66.2,56.1,30.08,West,279,14.0,16.0,70,0.00,,,0.00,Wunderground v.1.15,2013-07-26 03:10:00,
2013-07-25 20:15:00,65.9,55.0,30.08,WNW,283,14.0,16.0,68,0.00,,,0.00,Wunderground v.1.15,2013-07-26 03:15:00,
2013-07-25 20:20:00,65.7,55.2,30.08,West,267,13.0,16.0,69,0.00,,,0.00,Wunderground v.1.15,2013-07-26 03:20:00,
2013-07-25 20:25:00,65.3,55.3,30.08,WSW,257,12.0,16.0,70,0.00,,,0.00,Wunderground v.1.15,2013-07-26 03:25:00,
2013-07-25 20:30:00,65.0,55.8,30.08,West,259,13.0,13.0,72,0.00,,,0.00,Wunderground v.1.15,2013-07-26 03:30:00,
2013-07-25 20:34:00,64.8,55.6,30.08,West,280,13.0,18.0,72,0.00,,,0.00,Wunderground v.1.15,2013-07-26 03:34:00,
2013-07-25 20:40:00,64.6,56.1,30.08,WNW,282,13.0,14.0,74,0.00,,,0.00,Wunderground v.1.15,2013-07-26 03:40:00,
2013-07-25 20:45:00,64.2,55.7,30.08,West,280,12.0,14.0,74,0.00,,,0.00,Wunderground v.1.15,2013-07-26 03:45:00,
2013-07-25 20:49:00,64.0,55.9,30.08,WNW,289,12.0,15.0,75,0.00,,,0.00,Wunderground v.1.15,2013-07-26 03:49:00,
2013-07-25 20:54:00,63.9,55.8,30.08,WSW,257,12.0,15.0,75,0.00,,,0.00,Wunderground v.1.15,2013-07-26 03:54:00,
2013-07-25 20:59:00,63.6,54.8,30.08,WNW,288,12.0,14.0,73,0.00,,,0.00,Wunderground v.1.15,2013-07-26 03:59:00,
2013-07-25 21:04:00,63.3,54.9,30.09,WNW,290,10.0,14.0,74,0.00,,,0.00,Wunderground v.1.15,2013-07-26 04:04:00,
2013-07-25 21:09:00,63.0,54.6,30.09,West,261,9.0,9.0,74,0.00,,,0.00,Wunderground v.1.15,2013-07-26 04:09:00,
2013-07-25 21:15:00,62.7,55.0,30.09,West,278,9.0,9.0,76,0.00,,,0.00,Wunderground v.1.15,2013-07-26 04:15:00,
2013-07-25 21:20:00,62.4,54.4,30.09,West,279,8.0,13.0,75,0.00,,,0.00,Wunderground v.1.15,2013-07-26 04:20:00,
2013-07-25 21:25:00,62.3,54.6,30.10,WNW,286,7.0,13.0,76,0.00,,,0.00,Wunderground v.1.15,2013-07-26 04:25:00,
2013-07-25 21:29:00,61.9,54.2,30.10,NW,318,7.0,7.0,76,0.00,,,0.00,Wunderground v.1.15,2013-07-26 04:29:00,
2013-07-25 21:34:00,61.5,53.9,30.10,NNW,327,6.0,7.0,76,0.00,,,0.00,Wunderground v.1.15,2013-07-26 04:34:00,
2013-07-25 21:39:00,61.1,53.8,30.10,NW,304,6.0,6.0,77,0.00,,,0.00,Wunderground v.1.15,2013-07-26 04:39:00,
2013-07-25 21:44:00,60.9,54.0,30.10,WNW,297,7.0,8.0,78,0.00,,,0.00,Wunderground v.1.15,2013-07-26 04:44:00,
2013-07-25 21:50:00,60.7,54.1,30.10,NW,323,6.0,6.0,79,0.00,,,0.00,Wunderground v.1.15,2013-07-26 04:50:00,
2013-07-25 21:55:00,60.5,54.0,30.10,WNW,289,5.0,6.0,79,0.00,,,0.00,Wunderground v.1.15,2013-07-26 04:55:00,
2013-07-25 22:00:00,60.5,53.6,30.10,NNW,333,5.0,5.0,78,0.00,,,0.00,Wunderground v.1.15,2013-07-26 05:00:00,
2013-07-25 22:09:00,59.8,53.6,30.10,WNW,298,5.0,5.0,80,0.00,,,0.00,Wunderground v.1.15,2013-07-26 05:09:00,
2013-07-25 22:14:00,59.4,53.2,30.10,WNW,302,5.0,5.0,80,0.00,,,0.00,Wunderground v.1.15,2013-07-26 05:14:00,
2013-07-25 22:20:00,59.0,53.2,30.10,WNW,300,5.0,5.0,81,0.00,,,0.00,Wunderground v.1.15,2013-07-26 05:20:00,
2013-07-25 22:25:00,58.7,53.2,30.10,NW,322,4.0,5.0,82,0.00,,,0.00,Wunderground v.1.15,2013-07-26 05:25:00,
2013-07-25 22:29:00,58.7,53.2,30.10,NNW,334,5.0,7.0,82,0.00,,,0.00,Wunderground v.1.15,2013-07-26 05:29:00,
2013-07-25 22:35:00,58.9,53.4,30.10,NNW,333,5.0,7.0,82,0.00,,,0.00,Wunderground v.1.15,2013-07-26 05:35:00,
2013-07-25 22:40:00,59.4,53.2,30.09,NNW,341,6.0,6.0,80,0.00,,,0.00,Wunderground v.1.15,2013-07-26 05:40:00,
2013-07-25 22:45:00,59.2,53.0,30.10,WNW,284,6.0,6.0,80,0.00,,,0.00,Wunderground v.1.15,2013-07-26 05:45:00,
2013-07-25 22:50:00,58.8,53.0,30.10,NW,326,5.0,6.0,81,0.00,,,0.00,Wunderground v.1.15,2013-07-26 05:50:00,
2013-07-25 22:55:00,58.3,52.8,30.10,NW,315,5.0,7.0,82,0.00,,,0.00,Wunderground v.1.15,2013-07-26 05:55:00,
2013-07-25 23:00:00,58.2,53.1,30.10,NNW,348,5.0,5.0,83,0.00,,,0.00,Wunderground v.1.15,2013-07-26 06:00:00,
2013-07-25 23:05:00,58.2,52.7,30.10,NNW,343,5.0,10.0,82,0.00,,,0.00,Wunderground v.1.15,2013-07-26 06:05:00,
2013-07-25 23:10:00,58.2,52.7,30.10,North,360,6.0,6.0,82,0.00,,,0.00,Wunderground v.1.15,2013-07-26 06:10:00,
2013-07-25 23:15:00,58.1,52.6,30.10,NW,311,6.0,7.0,82,0.00,,,0.00,Wunderground v.1.15,2013-07-26 06:15:00,
2013-07-25 23:19:00,58.0,52.5,30.10,NW,307,6.0,6.0,82,0.00,,,0.00,Wunderground v.1.15,2013-07-26 06:19:00,
2013-07-25 23:24:00,57.6,52.5,30.10,NW,323,5.0,6.0,83,0.00,,,0.00,Wunderground v.1.15,2013-07-26 06:24:00,
2013-07-25 23:29:00,57.2,52.4,30.10,NW,309,6.0,6.0,84,0.00,,,0.00,Wunderground v.1.15,2013-07-26 06:29:00,
2013-07-25 23:35:00,56.8,52.0,30.10,WNW,294,6.0,6.0,84,0.00,,,0.00,Wunderground v.1.15,2013-07-26 06:35:00,
2013-07-25 23:40:00,56.4,51.9,30.10,NNW,340,5.0,5.0,85,0.00,,,0.00,Wunderground v.1.15,2013-07-26 06:40:00,
2013-07-25 23:44:00,56.2,51.7,30.10,NW,321,5.0,5.0,85,0.00,,,0.00,Wunderground v.1.15,2013-07-26 06:44:00,
2013-07-25 23:50:00,56.0,51.9,30.10,NNW,344,5.0,5.0,86,0.00,,,0.00,Wunderground v.1.15,2013-07-26 06:50:00,
2013-07-25 23:55:00,55.7,51.9,30.11,NW,319,5.0,5.0,87,0.00,,,0.00,Wunderground v.1.15,2013-07-26 06:55:00,